Regional Weather Roundup
Issued by NWS

Home | Current Version | Previous Version | Text Only | Print | Product List | Glossary Off
Versions: 1 2 3 4 5 6 7 8 9 10 11 12 13 14 15 16 17 18 19 20 21 22 23 24 25 26 27 28 29 30 31 32 33 34 35 36 37 38 39 40 41 42 43 44 45 46 47 48 49 50

130
ASUS43 KLSX 270607
RWRMO

WEATHER SUMMARY FOR MISSOURI
NATIONAL WEATHER SERVICE SPRINGFIELD MO
100 AM CDT TUE SEP 27 2016

NOTE: "FAIR" INDICATES FEW OR NO CLOUDS BELOW 12,000 FEET WITH NO
       SIGNIFICANT WEATHER AND/OR OBSTRUCTIONS TO VISIBILITY.
       CURRENT SKY AND/OR WEATHER CONDITIONS ARE NOT AVAILABLE FOR
       CHILLICOTHE AND FARMINGTON.

MOZ001>031-035>038-043-044-053-054-270700-
...NORTHERN AND WESTERN MISSOURI...

CITY           SKY/WX    TMP DP  RH WIND       PRES   REMARKS
KANSAS CTY INT CLEAR     56  46  69 SW7       30.09F
6HR MIN TEMP:  56; 6HR MAX TEMP:  64;

KANSAS C DTWN  CLEAR     61  48  62 CALM      30.09F
6HR MIN TEMP:  59; 6HR MAX TEMP:  70;

LEE`S SUMMIT   CLEAR     57  47  69 SW7       30.11F
6HR MIN TEMP:  57; 6HR MAX TEMP:  67;

ST JOSEPH      CLEAR     54  50  86 S5        30.08F
6HR MIN TEMP:  54; 6HR MAX TEMP:  67;

CHILLICOTHE      N/A     56  48  74 SW5       30.08F
6HR MIN TEMP:  53; 6HR MAX TEMP:  64;

KIRKSVILLE     CLEAR     57  45  64 SW7       30.06S
6HR MIN TEMP:  55; 6HR MAX TEMP:  65;


$$
MOZ066>068-077>081-088>096-101>105-270700-
...SOUTHWEST MISSOURI...

CITY           SKY/WX    TMP DP  RH WIND       PRES   REMARKS
SPRINGFIELD    CLEAR     50  44  80 S3        30.14F
6HR MIN TEMP:  50; 6HR MAX TEMP:  65;

JOPLIN         CLEAR     51  47  86 S3        30.16S
6HR MIN TEMP:  50; 6HR MAX TEMP:  65;

BRANSON        CLOUDY    48  45  87 CALM      30.17S

$$
MOZ032>034-039>042-045>050-055>058-069>072-270700-
...CENTRAL MISSOURI...

CITY           SKY/WX    TMP DP  RH WIND       PRES   REMARKS
COLUMBIA       CLEAR     56  44  64 SW7       30.10F
6HR MIN TEMP:  55; 6HR MAX TEMP:  65;

JEFFERSON CITY CLEAR     51  48  89 CALM      30.10F
6HR MIN TEMP:  51; 6HR MAX TEMP:  69;

ROLLA          CLEAR     50  45  83 SW6       30.11F
6HR MIN TEMP:  49; 6HR MAX TEMP:  62;

SEDALIA        CLEAR     57  44  62 SW9       30.11F
6HR MIN TEMP:  56; 6HR MAX TEMP:  66;

WHITEMAN AFB   CLEAR     52  47  82 SW7       30.09F
OSAGE BEACH    CLEAR     50  48  93 CALM      30.13F

$$
MOZ051-052-059>065-270700-
...EAST CENTRAL MISSOURI...

CITY           SKY/WX    TMP DP  RH WIND       PRES   REMARKS
ST LOUIS INTL  CLEAR     58  45  62 W3        30.08F
6HR MIN TEMP:  58; 6HR MAX TEMP:  68;

SPIRIT OF STL  CLEAR     53  51  93 CALM      30.08S
6HR MIN TEMP:  51; 6HR MAX TEMP:  61;

ST CHARLES     CLEAR     52  49  89 CALM      30.07F
6HR MIN TEMP:  51; 6HR MAX TEMP:  67;


$$
MOZ072>076-082>087-097>100-106>115-270700-
...SOUTH CENTRAL AND SOUTHEAST MISSOURI...

CITY           SKY/WX    TMP DP  RH WIND       PRES   REMARKS
CAPE GIRARDEAU CLEAR     49  47  93 CALM      30.10F
6HR MIN TEMP:  49; 6HR MAX TEMP:  66;

FARMINGTON     CLEAR     48  47  96 CALM      30.12F
6HR MIN TEMP:  48; 6HR MAX TEMP:  63; 6HR PCP: TRACE;

POPLAR BLUFF   CLEAR     52  51  97 NW3       30.11F
6HR MIN TEMP:  52; 6HR MAX TEMP:  66;

WEST PLAINS    CLEAR     50  44  80 CALM      30.16S
6HR MIN TEMP:  48; 6HR MAX TEMP:  63;


$$



USA.gov is the U.S. government's official web portal to all federal, state and local government web resources and services.